DMSP 5D-2 F13 DEB, 40678

Orbit data source: Space-Track

DMSP 5D-2 F13 DEB, 40678 is space debris in SSO originally from a launch on Fri, 24 Mar 1995 UTC launched from the Air Force Western Test Range (AFWTR). Debris objects in space refer to the collection of defunct objects orbiting the Earth. Examples of debris include non-operational satellites, rocket bodies, and fragments generated from explosions, collisions, or faulty payload assembly.

Loading next visibility...
Identifier
40678, 1995-015FS
Orbit
SSO
Country
Flag of USUS
Related business
Manufacturer
Unknown
Mission
Spacecraft
Bus & Motor
Unknown
Mass
Unknown
Launch date (UTC)
1995-03-24 (31 years ago)
Launch vehicle
Unknown
Launch site
Air Force Western Test Range (AFWTR)
Object type
Payload
Rocket body
Debris
Shape & HBR
Unknown shape, 0.1 m
Radar Cross Section
Small (<0.1 m²)

Expand to show TLE details & history
Last TLE update: 1 day ago

TLE from 1 day ago
0 DMSP 5D-2 F13 DEB
1 40678U 95015FS  25286.59220298  .00012730  00000-0  32027-2 0  9994
2 40678  98.5980 329.6202 0016591 191.4449 168.6370 14.51245415543863
Epoch: 2025-10-13T14:12Z
TLE epoch observation values (Epoch: 2025-10-13T14:12:46.337Z)
Latitude
-0.00003°
Longitude
94.03436°
Altitude
736.096 km
Speed
7.481 km/s
True Right ascension
21h 58m 28s
True Declination
0° 00' 00"
Sunlit
Object was in full shadow at epoch
Visualization orbit readout
Latitude
Unknown
Longitude
Unknown
Altitude
Unknown
Speed
Unknown
Apparent Right ascension
Unknown
Apparent Declination
Unknown
Sunlit
N/A
Visualization observer readout
Local Sidereal Time
09:33:23
Azimuth
Unknown
Elevation
Unknown
Doppler factor
Unknown
Orbital elements
Apogee altitude
730.47 km
Perigee altitude
706.921 km
Semi-major axis
7,096.832 km
Eccentricity
0.00166
Inclination
98.598°
RAAN
329.6202°
Arg. of periapsis
191.4449°
True anomaly
168.67438°
Mean anomaly
168.637°
Eccentric anomaly
168.6557°
Mean motion
3.63033 °/min
Orbital period
99.16 mins
BSTAR
0.0032027
Loading maneuver chart data...
Computing Atmospheric mass density...

Documentation

Showing up to 5 results
|